Wind_Speed
27 34 40 44 48 48 48 46 39 29 23 27 27 27 27 25 20 16 16 17 24 27 31 43 48 53 57 66 71 75 78 76 74 69 60 59 60 56 54 49 48 41 37 39 32
31 38 41 46 48 46 46 39 33 25 26 25 25 26 25 22 14 9 10 15 18 22 23 33 36 43 49 57 68 73 76 76 73 71 61 59 60 59 56 53 45 47 38 35 37
34 38 42 47 45 46 46 38 34 26 27 28 27 29 24 19 13 8 8 8 16 18 26 29 33 37 45 54 59 69 72 72 72 70 64 62 62 61 60 55 48 41 47 36 31
35 38 42 46 43 45 44 37 33 28 29 27 30 30 24 17 12 9 7 9 11 20 17 33 34 33 38 48 52 63 64 66 68 68 65 64 64 62 62 58 49 45 41 42 37
34 37 41 44 43 44 45 36 35 31 24 25 25 24 24 17 14 8 8 7 8 14 17 12 26 28 36 39 47 56 61 60 62 63 64 66 65 64 62 55 51 48 46 43 36
33 36 41 43 42 44 46 39 34 32 29 29 23 28 23 16 13 10 4 9 6 6 11 21 21 27 31 35 44 53 56 54 57 59 62 67 66 66 63 54 48 50 48 42 37
31 35 39 42 43 44 45 42 37 30 30 30 27 26 21 18 16 8 4 5 8 6 7 14 23 27 31 32 41 49 54 56 55 55 59 65 67 67 63 58 53 44 49 42 40
29 33 38 41 42 45 45 47 44 35 26 27 27 24 20 23 19 13 5 6 8 9 10 9 19 25 30 32 35 45 52 53 51 54 56 62 65 66 65 53 53 51 42 41 37
28 31 35 39 40 44 45 46 46 40 32 26 25 24 21 23 15 16 17 9 3 9 12 11 11 20 28 32 32 43 47 46 46 49 52 60 63 64 64 63 56 47 44 39 37
26 28 32 36 37 40 44 45 45 41 37 34 29 22 18 19 17 18 17 19 5 7 10 11 14 20 26 29 34 36 41 42 42 44 46 54 60 60 61 59 57 48 51 48 41
24 26 29 32 34 36 40 44 42 41 37 40 35 30 20 14 12 11 15 18 11 13 10 10 13 18 19 27 25 24 31 38 40 39 40 47 55 59 59 57 53 59 39 37 39
23 25 27 29 30 33 36 40 41 41 38 36 40 39 32 13 13 11 13 16 11 13 9 6 12 18 22 21 24 21 25 36 40 40 37 41 50 55 55 53 53 53 50 44 37
21 23 24 26 27 28 31 35 37 39 38 36 37 43 39 27 17 12 12 15 12 9 11 14 15 18 16 17 24 23 22 31 37 41 38 39 43 51 52 54 54 49 42 38 37
20 21 21 22 24 26 26 29 33 34 36 37 35 35 41 33 27 13 11 10 15 12 9 11 13 12 14 14 16 23 24 25 29 38 41 39 35 42 49 50 48 44 46 35 20
18 19 19 20 21 23 25 25 28 30 33 32 32 37 37 33 32 24 12 9 8 8 9 8 11 10 13 13 11 19 27 27 28 32 38 40 38 33 37 47 48 43 31 39 27
16 18 18 17 19 21 23 23 24 26 27 28 30 29 34 35 34 32 25 14 10 11 12 8 8 8 10 10 12 18 24 29 31 30 34 35 39 35 33 34 41 40 31 29 31
20 14 16 16 16 19 22 23 21 24 24 25 23 26 26 32 35 36 25 21 14 11 14 10 8 9 11 13 18 22 23 31 22 36 32 35 31 35 42 47 41 34 29 27 28
20 17 13 15 15 16 19 22 22 21 20 21 21 22 24 25 29 33 30 32 27 18 14 16 16 12 15 15 19 21 22 24 29 32 30 32 37 34 37 34 35 33 32 26 27
19 19 14 12 13 14 16 18 20 20 19 17 18 20 20 20 18 21 28 27 24 25 19 16 16 17 13 11 18 15 17 14 17 24 27 31 31 32 33 36 35 31 26 26 27
18 19 17 15 12 13 14 15 16 18 18 18 15 16 18 18 18 17 20 25 28 21 19 22 17 13 13 13 15 19 12 7 11 19 20 28 28 26 29 31 29 27 27 28 28
20 19 18 17 15 13 11 12 12 13 15 16 16 14 13 14 14 15 16 18 20 23 22 18 17 16 13 11 8 15 8 2 13 15 21 27 28 24 27 29 29 28 25 26 28
21 20 19 17 17 15 13 10 10 10 11 13 13 13 13 10 10 11 11 11 13 13 16 15 18 15 14 7 9 6 11 6 9 14 19 21 23 22 26 28 29 28 29 31 35
22 20 20 19 17 16 15 13 12 9 8 8 9 9 10 11 10 7 6 7 9 8 10 11 10 12 14 11 5 7 7 4 5 6 9 9 13 17 16 19 21 24 27 30 32
25 23 21 20 18 17 16 16 14 13 10 8 8 7 6 7 7 7 7 6 5 5 6 7 7 6 7 8 7 7 6 5 4 3 6 6 8 10 10 11 14 18 22 25 28
30 28 25 22 20 20 18 17 17 16 17 15 12 10 9 6 6 5 3 2 3 3 3 2 3 4 5 7 8 8 8 8 10 9 9 10 10 11 16 20 24 28 31 34 37
35 33 30 25 23 23 22 20 20 19 18 20 20 18 15 14 12 9 8 6 4 3 3 4 4 4 4 4 4 4 5 7 8 10 12 13 16 20 24 27 31 33 36 38 40
40 36 35 30 29 26 24 23 22 22 21 21 22 23 24 21 19 18 15 14 12 11 9 9 9 8 9 8 8 8 10 9 10 13 15 18 21 23 25 27 30 33 35 38 40
Wind_Direction
359 359 357 353 350 345 343 346 347 345 348 342 337 335 320 316 314 292 264 244 237 231 227 233 230 231 226 216 215 215 215 216 218 218 215 213 215 218 223 222 218 219 217 222 226
4 3 359 356 351 347 350 352 353 337 337 339 332 332 328 320 315 295 227 226 226 222 216 222 224 224 224 219 214 213 213 214 216 217 212 211 217 216 223 223 220 220 221 223 222
8 5 2 358 353 353 356 356 350 340 329 327 334 338 332 322 315 279 258 246 226 219 214 214 218 217 216 218 214 213 212 212 214 215 211 210 213 215 220 223 224 222 228 219 216
5 6 3 359 356 358 1 1 352 342 340 335 334 336 337 322 319 311 261 259 238 211 201 203 216 217 216 215 213 212 211 212 213 213 209 209 210 212 218 220 221 222 223 226 215
4 6 4 2 0 1 6 8 1 355 347 339 340 351 350 333 327 305 270 236 255 241 203 184 205 215 211 215 208 208 210 210 213 212 207 210 209 212 215 218 218 218 226 232 231
4 7 6 5 3 4 10 14 5 6 4 355 355 7 6 353 332 333 278 239 219 243 238 219 213 207 202 210 206 203 206 209 211 210 205 207 207 212 213 214 216 218 222 225 227
6 7 8 6 6 7 13 19 11 356 3 357 0 11 10 10 15 353 346 231 186 193 230 222 207 204 201 200 205 199 202 206 209 208 204 205 206 211 212 214 214 215 214 215 226
9 9 11 7 9 11 15 19 22 14 7 7 7 5 14 22 26 18 10 164 197 191 193 192 205 208 200 198 202 197 199 202 207 208 202 204 205 208 210 212 216 214 216 207 220
12 10 13 10 11 13 17 18 23 25 20 9 7 6 16 31 28 59 54 81 185 200 196 189 185 194 193 198 202 200 197 201 205 208 204 203 205 208 210 213 213 214 220 224 220
13 13 14 13 14 15 18 19 21 28 28 24 24 16 26 39 53 60 48 44 79 120 184 190 186 190 194 194 195 200 201 201 207 206 206 204 205 209 210 212 216 215 221 224 223
13 14 15 14 15 16 18 19 19 23 29 31 32 36 33 47 58 50 55 45 76 69 70 138 171 173 186 183 188 200 201 200 202 207 204 205 204 209 210 212 213 217 207 210 226
11 11 15 14 16 17 18 19 19 20 26 31 36 37 38 45 48 51 71 70 88 84 122 132 132 156 175 172 190 196 195 197 201 203 201 203 204 207 210 211 213 220 227 232 233
5 7 14 13 14 18 17 18 19 21 26 29 36 39 37 37 38 49 66 85 100 92 92 116 136 145 161 187 196 198 195 194 200 201 196 197 205 205 205 209 213 214 219 231 229
355 2 12 13 12 15 17 18 18 20 25 30 40 43 40 42 32 40 58 80 102 119 107 122 143 133 145 151 167 182 185 186 202 200 200 199 197 205 207 205 208 212 214 201 223
355 359 8 14 14 13 13 16 17 18 24 29 41 42 41 43 42 42 56 67 79 96 121 125 156 160 158 166 171 173 183 189 195 195 202 199 194 194 200 205 204 209 209 223 221
343 359 3 8 16 15 12 12 15 17 23 28 40 41 46 46 47 41 45 47 63 104 99 112 161 170 183 195 193 179 184 190 193 197 193 203 202 190 196 198 203 196 200 207 223
344 343 357 359 8 18 16 12 14 16 18 21 33 36 43 49 54 50 54 50 62 85 76 81 73 129 145 161 156 165 181 178 189 200 202 194 202 199 198 190 190 195 211 213 221
343 339 343 353 353 12 17 11 12 16 17 18 22 28 38 43 59 59 63 55 49 50 63 73 74 84 120 131 146 162 169 191 198 186 190 194 203 199 205 197 194 200 206 212 228
341 337 333 330 345 354 9 9 6 15 17 19 20 20 35 43 57 69 61 68 62 53 52 53 64 77 102 96 156 165 162 175 198 188 190 193 190 190 191 192 198 197 200 211 225
332 333 332 323 316 336 354 358 5 4 16 18 22 22 17 30 40 51 69 82 67 58 56 49 48 62 77 97 112 134 112 149 188 188 191 188 181 185 187 190 193 194 204 215 227
325 324 329 327 316 307 324 343 354 360 4 16 20 25 26 27 32 43 71 87 87 78 72 60 58 56 53 40 125 135 72 127 171 187 192 184 184 179 186 189 194 201 211 223 231
315 319 318 326 322 314 296 305 325 346 350 359 15 25 34 35 36 49 51 61 76 93 96 88 87 69 70 72 82 108 64 103 189 192 196 200 199 199 200 202 207 212 221 229 237
299 306 309 312 320 321 308 291 290 302 327 337 350 5 24 40 48 60 61 68 72 89 107 108 114 112 103 93 101 102 85 107 115 217 214 225 224 229 228 218 220 227 234 241 247
287 292 297 300 305 312 316 306 289 281 283 294 304 319 339 2 27 42 65 76 88 106 110 116 125 127 133 153 172 156 160 162 171 198 199 188 209 242 259 264 264 262 262 264 269
275 283 284 289 293 297 303 308 304 288 278 276 276 275 283 286 300 328 9 76 103 110 113 139 173 190 200 202 199 196 205 213 219 228 235 238 247 259 262 260 258 258 260 263 265
264 275 273 277 281 285 290 296 299 295 285 276 273 272 266 264 270 268 263 272 268 245 214 196 205 227 240 240 243 231 227 235 251 255 254 254 255 254 254 254 255 256 258 259 261
258 263 271 271 275 277 280 285 291 291 289 284 277 272 271 267 265 261 262 263 261 256 255 261 269 265 265 262 267 257 264 261 260 265 268 270 266 262 261 261 262 264 266 268 270
Height
5785 5778 5770 5762 5752 5744 5734 5724 5716 5708 5702 5696 5689 5681 5674 5668 5662 5658 5658 5660 5661 5665 5671 5674 5681 5690 5699 5710 5720 5730 5741 5756 5769 5785 5799 5807 5814 5819 5825 5834 5844 5849 5855 5858 5863
5781 5774 5767 5758 5749 5740 5730 5722 5713 5706 5700 5693 5685 5678 5671 5666 5660 5656 5655 5655 5656 5659 5663 5668 5674 5681 5689 5699 5709 5718 5733 5749 5760 5774 5790 5800 5807 5816 5820 5829 5837 5846 5850 5854 5858
5778 5772 5764 5755 5747 5737 5728 5719 5711 5704 5698 5690 5683 5674 5669 5663 5659 5655 5654 5653 5653 5656 5660 5664 5668 5674 5681 5691 5701 5712 5727 5740 5750 5764 5780 5789 5797 5806 5813 5822 5833 5842 5847 5851 5855
5776 5770 5762 5754 5745 5735 5725 5716 5709 5702 5696 5689 5681 5673 5666 5662 5659 5655 5653 5652 5651 5652 5656 5662 5664 5671 5677 5685 5696 5706 5720 5731 5741 5753 5769 5779 5789 5799 5806 5816 5827 5835 5838 5843 5850
5775 5769 5761 5753 5743 5733 5723 5715 5708 5701 5693 5687 5680 5672 5665 5660 5658 5655 5653 5652 5651 5651 5655 5658 5663 5669 5675 5683 5691 5701 5714 5724 5733 5743 5760 5770 5782 5791 5799 5811 5819 5827 5832 5838 5846
5774 5768 5760 5752 5743 5733 5723 5715 5708 5700 5693 5686 5679 5671 5665 5660 5656 5655 5652 5651 5652 5651 5654 5658 5663 5667 5672 5678 5686 5697 5708 5719 5725 5735 5749 5759 5773 5783 5794 5804 5813 5820 5827 5834 5840
5773 5767 5759 5752 5743 5734 5725 5716 5708 5700 5693 5686 5679 5672 5667 5662 5656 5653 5652 5652 5652 5653 5654 5655 5661 5665 5671 5676 5683 5691 5702 5711 5717 5729 5740 5751 5765 5778 5789 5798 5807 5816 5821 5827 5834
5773 5766 5759 5753 5744 5735 5726 5717 5710 5701 5694 5688 5681 5675 5669 5663 5658 5653 5652 5652 5654 5654 5656 5657 5659 5663 5669 5675 5681 5688 5697 5704 5714 5724 5736 5746 5761 5772 5784 5794 5802 5812 5816 5820 5830
5773 5767 5760 5754 5746 5736 5728 5719 5711 5704 5696 5690 5683 5676 5670 5665 5661 5657 5655 5654 5654 5655 5656 5658 5660 5663 5668 5674 5680 5686 5695 5705 5713 5722 5733 5744 5756 5765 5778 5788 5797 5806 5813 5818 5825
5773 5767 5761 5755 5748 5739 5732 5723 5716 5709 5701 5693 5684 5679 5671 5668 5666 5663 5660 5657 5655 5655 5657 5659 5661 5664 5669 5674 5681 5690 5698 5706 5714 5723 5732 5742 5753 5762 5773 5783 5792 5803 5807 5815 5823
5774 5768 5762 5756 5749 5743 5735 5727 5722 5714 5704 5696 5687 5679 5673 5670 5669 5667 5664 5661 5659 5659 5659 5659 5663 5667 5672 5677 5683 5689 5697 5705 5713 5722 5730 5740 5749 5757 5768 5778 5789 5796 5800 5810 5817
5775 5769 5763 5757 5751 5745 5739 5731 5725 5718 5708 5700 5692 5684 5678 5674 5672 5670 5668 5667 5666 5666 5666 5667 5668 5670 5674 5680 5685 5690 5696 5704 5711 5719 5728 5736 5745 5754 5764 5775 5783 5790 5798 5806 5811
5776 5770 5764 5759 5753 5748 5743 5736 5729 5722 5714 5706 5698 5690 5684 5681 5678 5675 5672 5670 5669 5670 5671 5672 5674 5675 5679 5682 5685 5691 5697 5704 5712 5719 5726 5734 5740 5748 5758 5769 5778 5787 5795 5801 5806
5776 5771 5766 5761 5756 5750 5745 5740 5733 5727 5720 5713 5705 5698 5691 5685 5681 5679 5678 5677 5675 5675 5675 5676 5679 5680 5682 5685 5689 5693 5699 5704 5712 5720 5726 5733 5740 5747 5757 5765 5776 5785 5793 5798 5801
5777 5772 5767 5762 5757 5752 5748 5742 5737 5732 5725 5720 5711 5704 5696 5692 5687 5683 5680 5681 5680 5679 5681 5682 5682 5684 5686 5690 5693 5697 5701 5706 5711 5719 5726 5732 5740 5747 5754 5764 5774 5781 5787 5791 5797
5777 5773 5769 5764 5759 5754 5749 5745 5741 5737 5730 5724 5718 5710 5704 5698 5692 5688 5687 5686 5686 5685 5685 5686 5686 5689 5689 5691 5694 5698 5702 5708 5714 5719 5724 5730 5739 5747 5756 5765 5771 5778 5784 5789 5794
5776 5773 5770 5766 5762 5756 5752 5748 5744 5738 5735 5729 5723 5717 5711 5707 5701 5697 5694 5693 5692 5692 5691 5689 5690 5691 5692 5693 5695 5699 5702 5707 5714 5718 5724 5730 5738 5746 5751 5758 5767 5773 5778 5783 5789
5776 5773 5770 5767 5763 5758 5754 5750 5745 5740 5736 5732 5727 5723 5719 5714 5709 5704 5702 5699 5699 5698 5697 5697 5697 5696 5696 5698 5700 5703 5706 5710 5712 5718 5724 5730 5734 5742 5747 5753 5764 5770 5775 5779 5782
5775 5772 5769 5767 5764 5761 5757 5753 5748 5743 5739 5735 5731 5727 5723 5720 5716 5712 5708 5706 5705 5705 5705 5703 5703 5702 5703 5703 5706 5707 5711 5715 5719 5722 5728 5732 5736 5743 5747 5754 5761 5767 5771 5775 5779
5773 5771 5768 5766 5764 5761 5759 5755 5751 5746 5741 5738 5735 5731 5728 5724 5721 5718 5716 5713 5711 5711 5710 5710 5710 5709 5709 5710 5711 5714 5717 5720 5721 5724 5728 5733 5739 5743 5747 5752 5759 5763 5767 5770 5774
5771 5769 5766 5763 5761 5760 5758 5756 5752 5749 5745 5741 5737 5734 5732 5728 5725 5722 5721 5718 5715 5714 5714 5714 5715 5716 5715 5716 5717 5719 5720 5723 5725 5729 5732 5735 5739 5742 5746 5751 5755 5759 5762 5765 5768
5767 5766 5764 5761 5760 5757 5755 5754 5753 5751 5748 5744 5740 5737 5734 5732 5730 5727 5725 5722 5721 5720 5718 5718 5719 5719 5720 5721 5723 5724 5726 5727 5729 5733 5734 5737 5742 5742 5746 5749 5752 5754 5758 5760 5762
5762 5761 5760 5758 5757 5755 5753 5752 5750 5749 5748 5746 5743 5740 5737 5735 5733 5731 5729 5727 5725 5724 5724 5724 5723 5723 5724 5726 5726 5727 5729 5731 5732 5734 5736 5739 5742 5744 5746 5748 5749 5751 5753 5755 5757
5758 5757 5755 5754 5753 5752 5750 5748 5747 5746 5745 5745 5744 5742 5739 5736 5735 5733 5731 5730 5728 5728 5727 5727 5726 5726 5727 5728 5729 5730 5731 5733 5734 5736 5737 5738 5740 5741 5743 5744 5746 5748 5749 5750 5750
5750 5751 5749 5750 5748 5747 5747 5745 5743 5743 5742 5741 5741 5740 5739 5738 5736 5734 5732 5732 5731 5729 5728 5728 5728 5728 5727 5727 5728 5730 5731 5732 5732 5733 5734 5735 5737 5739 5740 5741 5742 5743 5744 5743 5743
5741 5742 5742 5743 5742 5741 5741 5740 5739 5738 5737 5737 5737 5736 5735 5735 5735 5734 5733 5731 5730 5730 5729 5728 5728 5728 5728 5727 5727 5728 5728 5729 5729 5729 5730 5732 5733 5733 5734 5735 5736 5736 5735 5734 5733
5731 5732 5732 5735 5735 5735 5735 5734 5733 5733 5733 5731 5731 5731 5731 5731 5730 5730 5730 5730 5729 5729 5727 5727 5726 5725 5725 5725 5725 5726 5725 5726 5726 5726 5726 5727 5727 5728 5728 5728 5727 5726 5725 5724 5722